Find Starlink 31127

NORAD ID: 58765 Int'l Des: 2024-011 Owner: SPXS Country: US Constellation: starlink operational
LEOCIRCULAR

リアルタイム位置

3D地球を読み込み中...

Starlink 31127について

説明を読み込み中...

次回通過

Passes for default location (London). Set your location on the main map for personalized predictions.

高度履歴

Loading altitude history...

軌道要素

1 58765U 24011A 26123.38326138 .00001005 00000-0 46077-4 0 9991
2 58765 53.1604 119.6649 0001408 91.7449 268.3713 15.30194571128642
Epoch: May 3, 2026 • Age: 8 hours

現在のステータス

高度 475.6 km
速度 7.63 km/s
衛星直下点 4.40°N, 3.92°E
打ち上げ日 Jan 14, 2024
運用期間 2.2 years
タイプ internet

技術仕様

分類 Payload
質量 730.00 kg
乾燥質量 700.00 kg
総質量 730.00 kg
長さ 0.30 m
直径 4.10 m
スパン 29.00 m
形状 Box + pan
製造者 SPXS
バスタイプ Starlink V2M
フェーズステータス In Orbit
所有者/国 SPXS/US

Most Searched